CW5834 Weather Reports


Display with metric or nautical units.
time (UTC)temp
F
wind
direction
speed
MPH
gust
MPH
rain 1hr
in
rain 24hr
in
rain mn
in
humidity
%
barometer
mb
20260903222015 92 0 1.0 2.0 0.00 0.00 0.00 63 1017.7
20260903221018 93 315 1.0 2.0 0.00 0.00 0.00 58 1017.7
20260903220017 94 0 1.0 2.0 0.00 0.00 0.00 53 1018.0
20260903215017 94 338 2.0 3.0 0.00 0.00 0.00 52 1017.9
20260903214017 94 338 2.0 3.0 0.00 0.00 0.00 51 1017.9
20260903213017 94 315 2.0 3.0 0.00 0.00 0.00 48 1018.0
20260903212017 94 338 1.0 2.0 0.00 0.00 0.00 50 1018.2
20260903211017 95 0 1.0 3.0 0.00 0.00 0.00 47 1018.4
20260903210037 95 338 1.0 4.0 0.00 0.00 0.00 48 1018.4
20260903205038 95 0.0 2.0 0.00 0.00 0.00 50 1018.6
20260903204017 95 225 2.0 4.0 0.00 0.00 0.00 48 1018.5
20260903203017 94 180 1.0 4.0 0.00 0.00 0.00 46 1018.7
20260903202017 95 0.0 2.0 0.00 0.00 0.00 48 1018.8
20260903201017 94 135 1.0 4.0 0.00 0.00 0.00 48 1018.8
20260903200017 94 158 2.0 5.0 0.00 0.00 0.00 46 1018.9
20260903195017 94 23 1.0 3.0 0.00 0.00 0.00 52 1019.2
20260903194017 94 158 1.0 2.0 0.00 0.00 0.00 49 1019.2
20260903193017 94 180 2.0 5.0 0.00 0.00 0.00 47 1019.3
20260903192024 93 135 2.0 4.0 0.00 0.00 0.00 45 1019.4
20260903191017 94 135 2.0 4.0 0.00 0.00 0.00 49 1019.6
20260903190017 93 270 1.0 4.0 0.00 0.00 0.00 48 1019.5
20260903185017 93 180 2.0 5.0 0.00 0.00 0.00 49 1019.7
20260903184017 92 158 2.0 5.0 0.00 0.00 0.00 53 1019.8
20260903183017 92 203 3.0 6.0 0.00 0.00 0.00 53 1019.9
20260903182017 93 45 1.0 3.0 0.00 0.00 0.00 55 1020.1
20260903181017 92 113 2.0 7.0 0.00 0.00 0.00 56 1020.2
20260903180017 91 225 1.0 2.0 0.00 0.00 0.00 57 1020.3
20260903175017 91 0 2.0 6.0 0.00 0.00 0.00 55 1020.4
20260903174017 91 158 2.0 6.0 0.00 0.00 0.00 55 1020.6
20260903173037 92 180 1.0 4.0 0.00 0.00 0.00 56 1020.8
20260903172037 91 158 2.0 4.0 0.00 0.00 0.00 61 1020.8
20260903171017 90 158 1.0 4.0 0.00 0.00 0.00 61 1020.8
20260903170017 90 180 2.0 4.0 0.00 0.00 0.00 62 1020.9
20260903165016 90 135 2.0 4.0 0.00 0.00 0.00 62 1021.0
20260903164016 90 180 2.0 6.0 0.00 0.00 0.00 64 1021.1
20260903163017 90 315 1.0 3.0 0.00 0.00 0.00 62 1021.2
20260903162017 89 0 1.0 3.0 0.00 0.00 0.00 63 1021.1
20260903161017 89 113 1.0 4.0 0.00 0.00 0.00 62 1021.1
20260903160017 89 23 1.0 4.0 0.00 0.00 0.00 64 1021.3
20260903155016 88 135 2.0 4.0 0.00 0.00 0.00 66 1021.2
20260903154017 88 90 1.0 4.0 0.00 0.00 0.00 68 1021.3
20260903153016 87 113 1.0 2.0 0.00 0.00 0.00 67 1021.5
20260903152017 86 135 1.0 3.0 0.00 0.00 0.00 68 1021.4
20260903151017 86 203 2.0 4.0 0.00 0.00 0.00 71 1021.4
20260903150016 86 90 1.0 3.0 0.00 0.00 0.00 71 1021.4
20260903145017 85 113 1.0 3.0 0.00 0.00 0.00 70 1021.3
20260903144016 84 158 1.0 4.0 0.00 0.00 0.00 73 1021.2
20260903143016 84 158 2.0 4.0 0.00 0.00 0.00 73 1021.2
20260903142016 83 158 2.0 4.0 0.00 0.00 0.00 77 1021.3
20260903141016 82 90 1.0 3.0 0.00 0.00 0.00 77 1020.9
20260903140037 82 135 2.0 4.0 0.00 0.00 0.00 80 1021.0
20260903135016 81 135 1.0 3.0 0.00 0.00 0.00 81 1020.9
20260903134016 80 90 1.0 2.0 0.00 0.00 0.00 83 1020.9
20260903133016 80 113 1.0 3.0 0.00 0.00 0.00 82 1021.0
20260903132016 79 68 1.0 2.0 0.00 0.00 0.00 86 1021.1
20260903131016 77 113 1.0 2.0 0.00 0.00 0.00 88 1021.1
20260903130017 76 0.0 2.0 0.00 0.00 0.00 92 1021.1
20260903125016 74 90 1.0 3.0 0.00 0.00 0.00 93 1021.0
20260903124016 73 0.0 2.0 0.00 0.00 0.00 94 1020.9
20260903123016 73 0.0 2.0 0.00 0.00 0.00 94 1020.9
20260903122016 72 0.0 2.0 0.00 0.00 0.00 95 1020.9
20260903121016 71 0.0 2.0 0.00 0.00 0.00 96 1020.8
20260903120016 71 23 1.0 2.0 0.00 0.00 0.00 96 1020.8
20260903115016 70 0.0 2.0 0.00 0.00 0.00 95 1020.8
20260903114016 70 0.0 2.0 0.00 0.00 0.00 95 1020.6
20260903113016 69 0.0 0.0 0.00 0.00 0.00 95 1020.6
20260903112036 70 0.0 2.0 0.00 0.00 0.00 95 1020.4
20260903111016 70 23 1.0 1.0 0.00 0.00 0.00 95 1020.3
20260903110016 70 0.0 1.0 0.00 0.00 0.00 95 1020.3
20260903105016 70 0.0 0.0 0.00 0.00 0.00 95 1020.2
20260903104016 70 0.0 2.0 0.00 0.00 0.00 95 1020.1
20260903103016 70 0.0 2.0 0.00 0.00 0.00 95 1020.3
20260903102016 70 0.0 1.0 0.00 0.00 0.00 95 1020.2
20260903101016 70 0.0 1.0 0.00 0.00 0.00 95 1020.2
20260903100016 70 0.0 0.0 0.00 0.00 0.00 95 1020.1
20260903095016 70 0.0 2.0 0.00 0.00 0.00 95 1020.2
20260903094016 70 0.0 2.0 0.00 0.00 0.00 94 1020.1
20260903093016 70 0.0 1.0 0.00 0.00 0.00 95 1020.2
20260903092016 70 0.0 2.0 0.00 0.00 0.00 94 1020.2
20260903091036 71 0.0 2.0 0.00 0.00 0.00 94 1020.0
20260903090015 71 0.0 1.0 0.00 0.00 0.00 94 1020.0
20260903085016 71 0.0 0.0 0.00 0.00 0.00 94 1020.1
20260903084016 71 0.0 2.0 0.00 0.00 0.00 94 1020.2
20260903083016 71 0.0 1.0 0.00 0.00 0.00 94 1020.2
20260903082016 71 0.0 1.0 0.00 0.00 0.00 94 1020.1
20260903081015 71 23 1.0 1.0 0.00 0.00 0.00 94 1020.1
20260903080015 71 0.0 1.0 0.00 0.00 0.00 94 1020.1
20260903075015 71 0.0 2.0 0.00 0.00 0.00 93 1020.2
20260903074016 72 0.0 2.0 0.00 0.00 0.00 93 1020.2
20260903073016 72 0.0 1.0 0.00 0.00 0.00 93 1020.1
20260903072015 72 0 1.0 2.0 0.00 0.00 0.00 93 1020.0
20260903071016 72 0.0 0.0 0.00 0.00 0.00 93 1020.0
20260903070015 72 23 1.0 2.0 0.00 0.00 0.00 93 1020.0
20260903065036 72 23 1.0 1.0 0.00 0.00 0.00 93 1020.0
20260903064016 72 0.0 2.0 0.00 0.00 0.00 93 1020.2
20260903063015 72 0.0 1.0 0.00 0.00 0.00 93 1020.0
20260903062017 72 0.0 0.0 0.00 0.00 0.00 92 1020.2
20260903061017 73 0.0 2.0 0.00 0.00 0.00 92 1020.3
20260903060018 73 0.0 2.0 0.00 0.00 0.00 92 1020.2
20260903055017 73 0 1.0 2.0 0.00 0.00 0.00 92 1020.3
20260903054017 73 0 1.0 1.0 0.00 0.00 0.00 92 1020.2
20260903053118 73 338 1.0 1.0 0.00 0.00 0.00 92 1020.3
20260903052037 73 0.0 2.0 0.00 0.00 0.00 92 1020.4
20260903051018 73 0.0 1.0 0.00 0.00 0.00 92 1020.4
20260903050017 73 0.0 2.0 0.00 0.00 0.00 92 1020.4
20260903045015 73 0.0 2.0 0.00 0.00 0.00 91 1020.5
20260903044037 73 0.0 1.0 0.00 0.00 0.00 92 1020.5
20260903043017 73 0.0 1.0 0.00 0.00 0.00 92 1020.5
20260903042021 73 0.0 2.0 0.00 0.00 0.00 92 1020.5
20260903041017 73 0.0 2.0 0.00 0.00 0.00 91 1020.5
20260903040017 73 0.0 0.0 0.00 0.00 0.00 91 1020.4
20260903035016 73 0.0 2.0 0.00 0.00 0.00 91 1020.5
20260903034016 73 0.0 0.0 0.00 0.00 0.00 91 1020.5
20260903033016 74 0.0 0.0 0.00 0.00 0.00 91 1020.3
20260903032056 74 315 1.0 2.0 0.00 0.00 0.00 91 1020.5
20260903031016 74 0.0 0.0 0.00 0.00 0.00 90 1020.4
20260903030016 74 315 1.0 1.0 0.00 0.00 0.00 90 1020.4
20260903025016 74 0.0 2.0 0.00 0.00 0.00 90 1020.4
20260903024017 75 0.0 1.0 0.00 0.00 0.00 90 1020.4
20260903023036 75 0.0 2.0 0.00 0.00 0.00 90 1020.2
20260903022016 75 0.0 1.0 0.00 0.00 0.00 90 1020.4
20260903021016 75 0.0 2.0 0.00 0.00 0.00 90 1020.5
20260903020016 75 0.0 1.0 0.00 0.00 0.00 90 1020.2
20260903015016 76 0.0 1.0 0.00 0.00 0.00 89 1020.1
20260903014016 76 0.0 2.0 0.00 0.00 0.00 89 1020.1
20260903013016 76 0.0 0.0 0.00 0.00 0.00 88 1020.0
20260903012016 77 0.0 0.0 0.00 0.00 0.00 88 1019.9
20260903011016 77 0.0 0.0 0.00 0.00 0.00 87 1019.7
20260903010019 77 0.0 2.0 0.00 0.00 0.00 86 1019.5
20260903005015 78 0.0 2.0 0.00 0.00 0.00 85 1019.4
20260903004016 78 0.0 1.0 0.00 0.00 0.00 83 1019.4
20260903003015 79 0.0 0.0 0.00 0.00 0.00 82 1019.1
20260903002016 79 0.0 2.0 0.00 0.00 0.00 81 1019.1
20260903001016 80 0 1.0 1.0 0.00 0.00 0.00 80 1019.1
20260903000056 81 0.0 2.0 0.00 0.00 0.00 78 1019.2
20260902235015 82 0.0 1.0 0.00 0.00 0.00 76 1019.2
20260902234016 83 0.0 0.0 0.00 0.00 0.00 74 1019.3
20260902233056 84 0.0 2.0 0.00 0.00 0.00 75 1019.4
20260902232016 85 338 1.0 1.0 0.00 0.00 0.00 73 1019.6
20260902231015 87 315 1.0 1.0 0.00 0.00 0.00 70 1019.6
20260902230015 88 315 1.0 1.0 0.00 0.00 0.00 68 1019.7
20260902225015 89 315 1.0 1.0 0.00 0.00 0.00 66 1019.6
20260902224015 89 315 1.0 1.0 0.00 0.00 0.00 67 1019.5
20260902223015 91 315 1.0 1.0 0.00 0.00 0.00 63 1019.8